Weather History for KBIV - December, 2012

Change the Weather History Date:

Monday, December 10, 2012

  Actual Average Record
Temperature  
Mean Temperature 37 °F 33 °F  
Max Temperature 42 °F 38 °F - ()
Min Temperature 31 °F 28 °F - ()
Degree Days  
Heating Degree Days 28 32  
Month to date heating degree days 227 308  
Since 1 July heating degree days 1468 1531  
Cooling Degree Days 0 0  
Month to date cooling degree days 0 0  
Year to date cooling degree days 1067 693  
Moisture  
Dew Point 31 °F    
Average Humidity 80    
Maximum Humidity 96    
Minimum Humidity 63    
Precipitation  
Precipitation 0.10 in 0.09 in - ()
Month to date precipitation 0.92 0.97  
Year to date precipitation 31.76 35.13  
Sea Level Pressure  
Sea Level Pressure 29.71 in    
Wind  
Wind Speed 6 mph (North)    
Max Wind Speed 23 mph    
Max Gust Speed 29 mph    
Visibility 7 miles    
Events Fog , Rain , Snow    
T = Trace of Precipitation, MM = Missing Value Source: NWS Daily Summary

Daily Weather History Graph

Daily Weather History Graph

Search for Another Location

Airport or City:

Trip Planner

Search our weather history database for the weather conditions in past years. The results will help you decide how hot, cold, wet, or windy it might be!

Date:

Astronomy

Dec. 10, 2012 Rise Set
Actual Time 8:04 AM EST 5:10 PM EST
Civil Twilight 7:32 AM EST 5:42 PM EST
Nautical Twilight 6:56 AM EST 6:18 PM EST
Astronomical Twilight 6:22 AM EST 6:52 PM EST
Moon 4:44 AM EST (12/10) 3:01 PM EST (12/10)
Length of Visible Light 10h 10m
Length of Day
9h 06m
Waning Crescent, 10% of the Moon is Illuminated
Dec 10
Waning Crescent
Dec 13
New
Dec 20
First Quarter
Dec 28
Full
Jan 4
Last Quarter

Hourly Weather History & Observations

Time (EST) Temp. Windchill Dew Point Humidity Pressure Visibility Wind Dir Wind Speed Gust Speed Precip Events Conditions
12:12 AM 33.8 °F 28.6 °F 32.0 °F 93% 29.66 in 2.0 mi East 5.8 mph - 0.01 in   Overcast
12:53 AM 34.0 °F 29.8 °F 32.0 °F 92% 29.67 in 1.8 mi SE 4.6 mph - 0.01 in   Overcast
1:05 AM 35.6 °F 32.8 °F 33.8 °F 93% 29.65 in 1.0 mi SE 3.5 mph - N/A   Overcast
1:18 AM 35.6 °F 31.7 °F 33.8 °F 93% 29.65 in 0.8 mi ESE 4.6 mph - N/A   Mist
1:39 AM 35.6 °F 32.8 °F 33.8 °F 93% 29.64 in 0.5 mi SE 3.5 mph - N/A Fog Fog
1:53 AM 35.1 °F - 33.1 °F 92% 29.66 in 0.8 mi Calm Calm - N/A   Mist
2:19 AM 35.6 °F - 33.8 °F 93% 29.63 in 1.2 mi Calm Calm - N/A   Overcast
2:25 AM 35.6 °F 32.8 °F 33.8 °F 93% 29.63 in 2.0 mi ESE 3.5 mph - N/A   Overcast
2:46 AM 41.0 °F 33.1 °F 37.4 °F 87% 29.62 in 7.0 mi WSW 15.0 mph 21.9 mph N/A   Overcast
2:53 AM 41.0 °F 32.8 °F 37.0 °F 86% 29.64 in 10.0 mi WSW 16.1 mph 21.9 mph N/A   Overcast
3:02 AM 41.0 °F 32.5 °F 37.4 °F 87% 29.62 in 10.0 mi WSW 17.3 mph - N/A   Overcast
3:53 AM 42.1 °F 34.9 °F 37.0 °F 82% 29.65 in 10.0 mi West 13.8 mph 24.2 mph N/A   Overcast
4:40 AM 37.4 °F 31.4 °F 35.6 °F 93% 29.63 in 7.0 mi NNW 8.1 mph 17.3 mph N/A   Overcast
4:48 AM 35.6 °F 31.7 °F 33.8 °F 93% 29.64 in 5.0 mi North 4.6 mph - N/A   Overcast
4:53 AM 36.0 °F 32.1 °F 33.1 °F 89% 29.66 in 5.0 mi North 4.6 mph - N/A   Overcast
5:53 AM 37.0 °F 34.5 °F 34.0 °F 89% 29.65 in 4.0 mi NW 3.5 mph - 0.01 in   Overcast
6:21 AM 39.2 °F 31.2 °F 35.6 °F 87% 29.63 in 8.0 mi West 13.8 mph 25.3 mph 0.02 in Rain Light Rain
6:53 AM 37.9 °F 34.4 °F 34.0 °F 86% 29.66 in 7.0 mi Variable 4.6 mph - 0.03 in Rain Light Rain
7:05 AM 35.6 °F 31.7 °F 33.8 °F 93% 29.65 in 6.0 mi North 4.6 mph - 0.00 in Rain Light Rain
7:53 AM 35.1 °F 32.2 °F 30.9 °F 85% 29.69 in 3.0 mi North 3.5 mph - 0.01 in Snow Light Snow
7:59 AM 35.6 °F 32.8 °F 30.2 °F 81% 29.67 in 1.8 mi Variable 3.5 mph - 0.00 in Snow Light Snow
8:10 AM 33.8 °F - 32.0 °F 93% 29.67 in 1.0 mi Calm Calm - 0.00 in Snow Light Snow
8:25 AM 33.8 °F 30.8 °F 30.2 °F 87% 29.67 in 1.8 mi North 3.5 mph - 0.00 in Snow Light Snow
8:33 AM 33.8 °F - 30.2 °F 87% 29.68 in 2.0 mi Calm Calm - 0.00 in Snow Light Snow
8:43 AM 33.8 °F - 30.2 °F 87% 29.68 in 4.0 mi Calm Calm - 0.00 in   Overcast
8:53 AM 34.0 °F - 32.0 °F 92% 29.71 in 4.0 mi Calm Calm - 0.00 in   Overcast
9:36 AM 35.6 °F - 30.2 °F 81% 29.69 in 8.0 mi Calm Calm - N/A   Overcast
9:53 AM 36.0 °F - 32.0 °F 86% 29.72 in 10.0 mi Calm Calm - 0.01 in   Overcast
10:37 AM 37.4 °F 33.8 °F 32.0 °F 81% 29.71 in 10.0 mi NNE 4.6 mph - 0.02 in   Overcast
10:53 AM 37.9 °F 32.7 °F 32.0 °F 79% 29.74 in 10.0 mi North 6.9 mph - 0.02 in   Overcast
11:53 AM 37.0 °F 30.4 °F 28.9 °F 73% 29.75 in 10.0 mi North 9.2 mph - N/A   Overcast
12:37 PM 37.4 °F 30.8 °F 28.4 °F 70% 29.73 in 10.0 mi North 9.2 mph - 0.00 in   Overcast
12:53 PM 37.0 °F 31.0 °F 28.9 °F 73% 29.75 in 10.0 mi North 8.1 mph - 0.00 in   Mostly Cloudy
1:16 PM 37.4 °F 32.8 °F 28.4 °F 70% 29.73 in 10.0 mi NNE 5.8 mph - N/A   Overcast
1:53 PM 36.0 °F 30.3 °F 28.9 °F 76% 29.74 in 8.0 mi Variable 6.9 mph - N/A   Overcast
2:53 PM 36.0 °F 32.1 °F 28.0 °F 73% 29.75 in 10.0 mi NNW 4.6 mph - N/A   Overcast
3:53 PM 36.0 °F 31.1 °F 27.0 °F 70% 29.76 in 10.0 mi North 5.8 mph - N/A   Overcast
4:04 PM 35.6 °F 29.2 °F 26.6 °F 70% 29.75 in 10.0 mi North 8.1 mph - N/A   Overcast
4:53 PM 36.0 °F 30.3 °F 24.1 °F 62% 29.78 in 10.0 mi North 6.9 mph - 0.01 in   Overcast
5:53 PM 35.1 °F 29.3 °F 24.1 °F 64% 29.81 in 10.0 mi NNE 6.9 mph - N/A   Overcast
6:53 PM 35.1 °F 29.3 °F 24.1 °F 64% 29.84 in 10.0 mi NNE 6.9 mph - N/A   Overcast
7:53 PM 34.0 °F 27.2 °F 23.0 °F 64% 29.86 in 10.0 mi North 8.1 mph - N/A   Overcast
8:53 PM 33.1 °F 30.0 °F 23.0 °F 66% 29.88 in 10.0 mi Variable 3.5 mph - N/A   Partly Cloudy
9:53 PM 32.0 °F 28.7 °F 23.0 °F 69% 29.89 in 10.0 mi North 3.5 mph - N/A   Mostly Cloudy
10:53 PM 32.0 °F 27.5 °F 21.9 °F 66% 29.90 in 10.0 mi NE 4.6 mph - N/A   Overcast
11:53 PM 30.9 °F 27.5 °F 19.9 °F 64% 29.92 in 10.0 mi NE 3.5 mph - N/A   Overcast